Home   Weather   Eisenstadt   Past weeks
Flag for Austria

Past Weather in Eisenstadt, Burgenland, Austria — Yesterday and Last 2 Weeks

Now
72 °F

Mild.


Feels Like: 71 °F
Forecast: 82 / 65 °F
Wind: 2 mph from Northwest

Location: Eisenstadt

Current Time: Aug 25, 2019 at 10:07:52 pm

Latest Report: Aug 25, 2019 at 9:00 pm


Visibility: N/A

Pressure: 30.11 "Hg

Humidity: 82%

Dew Point: 66 °F

Location of EisenstadtLocation

Past Weather in Eisenstadt — Graph

°F

Eisenstadt Temperature Yesterday

Maximum temperature yesterday: 86 °F (at 3:00 pm)
Minimum temperature yesterday: 65 °F (at 11:00 pm)
Average temperature yesterday: 75 °F

High & Low Weather Summary for the Past Weeks

 TemperatureHumidityPressure
High92 °F (Aug 18, 5:00 pm)94% (Aug 25, 3:00 am)30.31 "Hg (Aug 25, 3:00 am)
Low54 °F (Aug 17, 6:00 am)27% (Aug 18, 6:00 pm)29.83 "Hg (Aug 12, 6:00 pm)
Average72 °F61%30.04 "Hg
* Reported Aug 10 7:00 pm — Aug 25 7:00 pm, Eisenstadt. Weather by CustomWeather, © 2019

Note: Actual official high and low records may vary slightly from our data, if they occured in-between our weather recording intervals... More about our weather records

Advertising

Eisenstadt Weather History for the Previous 24 Hours

Scroll right to see more
 ConditionsComfort  
Time TempWeatherWind HumidityBarometerVisibility
7:00 pm
Sun, Aug 25
79 °FWarm.2 mph61%30.08 "HgN/A
6:00 pm78 °FWarm.3 mph61%30.08 "HgN/A
5:00 pm79 °FScattered clouds.3 mph60%30.07 "Hg16 mi
12:00 pm74 °FMild.2 mph71%30.13 "HgN/A
11:00 am72 °FOvercast.1 mph71%30.13 "Hg9 mi
10:00 am68 °FMild.2 mph88%30.14 "HgN/A
9:00 am66 °FMild.3 mph91%30.14 "HgN/A
8:00 am66 °FOvercast.1 mph93%30.15 "Hg9 mi
7:00 am65 °FMild.1 mph93%30.14 "HgN/A
6:00 am65 °FMild.1 mph93%30.13 "HgN/A
5:00 am66 °FOvercast.3 mph92%30.11 "Hg9 mi
4:00 am65 °FMild.5 mph92%30.12 "HgN/A
3:00 am65 °FMild.3 mph94%30.13 "HgN/A
2:00 am65 °FThundershowers. Overcast.3 mph92%30.11 "Hg9 mi
1:00 am65 °FFog.1 mph92%30.11 "HgN/A
12:00 am66 °FMild.5 mph90%30.15 "HgN/A
11:00 pm
Sat, Aug 24
65 °FThundershowers. Overcast.3 mph93%30.14 "Hg9 mi
Weather by CustomWeather, © 2019

See weather overview